P/2020 S5 ( PanSTARRS )

Japanese version
Home page
Updated on December 11, 2020

---------------------------------------------------------------------

* Profile

Discovery Date September 21, 2020
Magnitude 20.5 mag
Discoverer Pan-STARRS 1 telescope (Haleakala)

* Orbital Elements

Epoch 2020 Aug. 19.0 TT = JDT 2459080.5
T 2020 Aug. 8.34493 TT                                  Rudenko
q   2.6786687            (2000.0)            P               Q
n   0.12101843     Peri.   53.00819     +0.97482371     -0.16621879
a   4.0479490      Node   315.99794     +0.06344255     +0.84576886
e   0.3382652      Incl.   12.35389     +0.21376103     +0.50699739
P   8.14
From 66 observations 2020 Aug. 26-Nov. 6, mean residual 0".4.

* Magnitudes Graph

        m1 = 14.5 + 5 log d + 10.0 log r

---------------------------------------------------------------------

The orbital elements are published on M.P.E.C. 2020-W26.
The magnitudes graphs are made with Comet for Windows.

---------------------------------------------------------------------

Copyright(C) Seiichi Yoshida (comet@aerith.net). All rights reserved.